Wind_Speed
17 17 18 18 17 16 16 16 16 15 15 14 15 15 16 16 15 15 15 15 16 15 15 15 15 15 14 14 14 14 15 14 14 14 14 14 14 14 14 14 15 15 15
18 18 19 18 18 18 17 17 17 16 17 17 17 17 17 17 17 16 16 16 16 16 16 16 16 16 16 15 15 15 16 15 15 15 15 15 15 14 14 15 15 16 16
18 18 18 18 18 18 18 19 19 19 18 18 18 18 18 18 18 17 16 16 17 17 17 17 16 16 16 16 16 16 16 16 16 16 16 15 15 15 15 15 15 16 16
19 19 18 18 18 19 19 20 21 21 20 19 19 19 19 19 19 18 18 18 17 18 18 18 18 17 16 16 16 17 17 17 17 17 16 16 16 17 16 16 16 16 17
20 19 19 18 18 18 19 20 21 22 21 21 20 19 20 20 19 19 20 19 19 19 19 19 19 18 17 17 17 17 17 17 17 17 17 17 18 18 17 17 17 18 17
21 20 20 20 20 19 19 19 20 20 20 20 21 21 20 21 21 21 21 21 21 20 21 20 20 20 19 18 18 18 17 17 17 17 18 18 18 18 17 18 18 18 18
22 21 20 20 20 20 20 19 20 20 21 20 21 21 21 22 22 22 23 23 23 22 22 22 21 21 20 20 19 19 18 18 18 18 19 18 18 19 19 19 19 19 20
23 22 21 21 21 21 21 21 21 21 22 22 21 22 22 22 23 23 24 24 24 24 24 23 22 22 21 21 20 20 19 19 19 19 19 19 20 20 20 20 20 20 20
23 23 23 23 23 23 23 22 22 23 23 23 23 23 23 24 24 24 24 24 24 25 25 24 23 23 23 23 22 21 21 21 21 20 20 20 21 21 21 21 21 21 21
24 23 23 23 24 24 24 24 23 24 24 25 24 24 25 25 25 25 25 25 25 25 25 25 25 24 24 24 24 23 22 22 22 21 21 22 22 22 22 22 22 21 21
25 24 24 24 24 25 25 24 24 25 25 26 26 26 26 27 27 27 26 26 26 27 26 26 26 26 26 26 25 25 24 23 23 23 23 23 23 23 22 22 22 22 21
26 25 25 24 24 24 25 25 25 26 26 26 26 26 26 27 27 28 27 27 27 28 27 27 27 27 27 27 27 26 26 25 24 24 23 23 23 23 23 23 23 22 22
28 27 26 25 25 26 26 26 27 26 26 26 26 26 26 26 27 27 28 28 28 28 28 28 27 28 28 28 27 27 27 26 25 25 24 24 24 24 24 24 23 23 23
28 28 27 27 27 27 26 26 27 27 27 26 26 26 26 26 27 28 28 28 28 29 28 28 28 27 28 28 28 28 27 26 26 25 25 24 24 24 24 24 24 24 24
27 28 28 28 27 26 26 26 25 25 25 25 25 25 26 26 26 28 28 29 29 29 29 29 28 28 27 28 28 29 28 28 27 27 26 26 25 25 26 26 25 25 26
27 27 27 27 27 26 25 25 25 25 25 26 26 26 26 26 26 27 28 28 28 28 29 28 28 28 28 28 28 29 29 29 28 28 28 28 27 27 27 26 26 26 26
27 27 27 27 26 26 26 26 26 25 25 26 26 26 26 26 27 27 28 28 28 28 28 28 28 28 28 28 28 29 29 29 29 28 27 27 27 27 27 27 27 26 26
28 27 27 27 27 27 27 27 27 26 26 26 26 26 26 27 27 27 28 28 28 28 28 28 28 28 29 29 29 29 29 29 28 28 27 27 28 28 28 28 27 27 26
28 28 28 28 28 29 29 29 28 27 27 27 27 27 27 27 27 28 28 27 27 28 29 29 29 29 29 29 29 29 29 29 29 29 28 29 28 28 28 28 28 27 27
28 28 28 28 28 29 29 29 29 29 29 28 28 28 28 28 28 28 28 28 28 28 29 29 29 29 29 29 29 29 29 30 30 30 30 30 30 29 29 28 28 28 28
28 28 28 28 28 29 29 29 29 29 29 29 29 29 29 29 29 29 29 29 29 29 29 29 29 29 28 29 29 28 28 28 29 30 30 30 30 30 30 29 29 29 29
28 28 28 28 28 28 29 29 29 29 29 29 28 28 29 29 29 29 29 29 29 30 30 30 30 31 31 31 30 30 29 29 29 30 30 30 30 30 29 29 29 29 29
28 28 28 28 29 28 28 28 29 29 28 28 28 28 28 28 28 29 30 30 31 31 31 31 31 31 31 31 31 30 30 30 30 30 31 30 30 29 29 29 29 29 29
28 29 29 29 29 29 29 29 29 29 28 28 28 29 29 29 29 29 29 30 30 29 29 30 30 30 30 30 30 30 31 31 31 31 31 31 30 30 30 30 30 30 30
27 28 29 29 29 29 28 28 29 29 28 28 27 28 28 28 29 28 28 28 28 28 28 28 29 29 29 29 30 31 31 32 32 31 31 31 31 31 31 31 31 31 31
26 26 27 28 28 28 27 27 28 28 27 27 27 27 27 27 28 28 28 27 27 27 27 27 28 28 29 29 29 30 30 31 31 32 31 31 30 31 31 31 31 31 31
Wind_Direction
270 271 271 273 268 265 264 263 264 265 263 260 259 258 254 252 253 252 252 252 252 255 258 258 258 259 260 262 265 268 269 272 275 278 282 282 281 281 282 279 275 277 280
270 271 271 270 268 266 265 264 264 265 265 262 260 259 257 254 253 252 253 256 255 255 257 257 259 260 258 261 265 268 269 269 272 276 279 282 279 281 284 281 279 279 280
271 270 271 270 269 270 269 267 265 265 265 262 259 258 257 255 253 251 253 257 257 256 256 258 260 259 258 261 264 266 268 269 270 273 278 279 280 281 283 283 282 281 281
272 273 272 271 271 271 270 268 265 264 262 260 259 259 257 255 255 255 254 256 256 256 257 257 257 260 261 263 264 266 268 269 270 271 275 278 279 280 283 282 280 280 280
270 271 270 269 271 274 273 270 267 263 259 257 257 259 257 255 257 256 255 255 255 256 257 258 257 259 262 264 266 268 269 270 270 272 274 277 279 279 280 280 279 278 279
270 270 270 269 270 271 272 269 264 261 258 257 257 258 257 255 256 258 256 255 256 256 256 257 258 259 262 265 266 269 271 271 273 274 274 278 279 280 279 280 279 278 279
270 268 268 268 269 269 269 268 263 259 259 258 259 260 258 257 256 257 257 256 256 255 256 256 257 259 260 262 264 266 269 270 272 275 275 277 278 280 281 281 281 281 281
270 267 266 266 267 268 267 267 264 260 259 259 258 260 260 260 260 259 259 257 255 254 253 255 257 258 260 261 263 265 267 268 270 273 273 274 276 280 283 283 283 283 283
268 265 265 266 267 268 267 266 264 261 259 259 259 260 259 259 260 261 259 257 255 254 253 253 255 257 259 260 262 263 265 268 268 270 272 274 277 280 282 282 283 283 283
266 264 264 265 266 267 267 265 263 262 261 260 261 261 259 259 261 262 260 257 254 254 253 253 255 256 259 259 261 262 263 265 267 269 272 276 278 280 282 283 283 283 283
267 264 264 265 265 265 265 264 263 263 262 261 262 261 260 260 260 260 259 258 255 253 253 254 254 255 258 259 260 261 262 265 266 268 271 274 277 280 282 283 283 282 284
268 265 265 265 266 266 264 262 261 261 261 261 261 261 261 261 259 258 258 257 254 252 252 253 254 255 257 260 260 259 261 263 266 269 271 274 276 279 281 282 283 282 283
266 264 263 264 266 265 265 263 261 260 260 260 261 261 260 259 257 256 257 257 255 253 251 253 255 256 257 258 259 259 260 262 265 267 270 272 275 278 278 279 281 282 283
262 263 263 263 263 262 263 263 261 260 259 259 259 260 259 257 257 257 257 257 257 254 253 254 255 257 259 260 259 259 260 261 263 265 268 270 272 276 278 279 280 279 279
263 262 261 262 261 260 260 261 261 260 259 258 258 259 259 259 260 259 257 257 257 255 255 257 257 257 259 261 260 258 259 260 261 264 266 268 271 274 277 279 280 279 279
265 263 261 260 260 260 259 261 262 261 260 258 258 258 259 259 260 259 256 255 255 255 257 258 259 260 261 262 261 260 260 260 261 264 265 267 269 272 275 277 280 280 279
265 264 261 260 260 260 260 259 260 261 262 261 259 259 259 258 259 258 256 256 255 255 257 259 259 260 262 263 263 261 260 262 263 264 265 266 268 270 273 274 276 278 279
263 262 261 259 259 260 260 259 260 261 261 260 260 260 259 259 259 259 257 257 256 256 258 259 259 259 261 263 264 262 260 260 262 263 264 265 267 269 271 273 274 275 276
260 261 261 260 259 258 259 259 258 259 259 259 259 260 259 259 258 258 257 257 257 258 259 259 259 260 261 262 263 262 261 261 262 262 263 265 267 269 271 272 274 274 275
261 261 261 260 259 258 257 257 258 259 259 258 259 259 259 259 258 258 257 257 259 259 259 258 258 259 260 262 263 263 262 262 262 263 264 265 266 267 270 272 273 273 274
262 262 262 262 261 260 258 258 258 258 258 259 259 259 259 259 258 257 256 257 259 259 258 257 256 257 260 263 263 262 262 262 262 262 263 265 267 267 268 270 271 271 272
262 263 262 262 263 261 260 259 258 258 258 258 259 258 259 259 258 258 257 258 258 258 258 258 258 258 258 261 262 261 261 261 262 263 263 264 266 267 268 269 270 271 271
264 264 264 263 263 263 262 260 260 260 259 258 259 259 259 259 259 258 258 259 259 260 260 259 260 260 260 262 262 262 262 262 264 265 264 263 265 267 268 269 270 271 272
266 264 265 265 264 263 262 261 260 259 259 258 258 258 259 259 260 260 260 259 260 261 263 261 261 260 262 263 262 262 263 263 265 266 266 266 267 269 270 270 270 270 271
267 266 265 264 263 262 261 260 259 258 257 257 258 259 260 258 258 259 260 260 261 262 263 261 260 260 262 263 264 265 265 264 264 265 265 266 268 270 271 271 269 269 270
268 268 265 263 261 260 259 259 258 257 256 256 257 258 259 258 257 258 259 261 262 263 262 261 260 261 263 264 264 265 265 266 266 266 265 266 267 269 270 270 270 270 270
Height
5814 5814 5814 5814 5814 5814 5814 5815 5815 5816 5817 5817 5818 5819 5819 5820 5822 5823 5824 5825 5826 5826 5827 5828 5828 5829 5829 5830 5830 5830 5830 5830 5830 5830 5829 5828 5828 5828 5827 5827 5826 5826 5826
5809 5809 5809 5808 5809 5809 5809 5810 5810 5811 5812 5813 5814 5814 5815 5816 5817 5819 5820 5821 5822 5823 5823 5824 5824 5825 5825 5826 5826 5826 5826 5826 5826 5826 5825 5825 5824 5824 5823 5823 5822 5822 5821
5804 5804 5803 5803 5803 5804 5804 5804 5805 5806 5807 5808 5809 5810 5811 5812 5813 5814 5815 5816 5818 5819 5819 5820 5820 5821 5821 5821 5822 5822 5822 5822 5822 5822 5821 5821 5820 5820 5819 5819 5818 5817 5817
5798 5798 5798 5798 5798 5798 5798 5799 5799 5800 5801 5802 5803 5805 5806 5807 5808 5810 5811 5812 5813 5814 5815 5815 5816 5816 5817 5817 5817 5817 5817 5817 5817 5817 5817 5816 5816 5815 5815 5815 5814 5813 5813
5792 5792 5792 5792 5792 5792 5793 5793 5793 5794 5795 5796 5798 5799 5801 5802 5804 5805 5806 5807 5808 5809 5810 5811 5811 5812 5812 5813 5813 5813 5813 5813 5813 5813 5812 5812 5811 5811 5810 5810 5809 5809 5808
5785 5785 5786 5786 5786 5786 5787 5787 5787 5788 5789 5790 5792 5793 5795 5797 5798 5799 5800 5801 5802 5803 5804 5805 5806 5807 5808 5808 5808 5808 5809 5808 5808 5808 5808 5807 5807 5806 5806 5805 5805 5804 5804
5778 5778 5779 5779 5779 5780 5780 5781 5781 5782 5783 5784 5785 5787 5789 5791 5792 5793 5794 5795 5796 5797 5798 5799 5801 5802 5802 5803 5803 5803 5804 5803 5804 5803 5803 5803 5802 5802 5801 5800 5799 5799 5798
5771 5771 5772 5772 5772 5773 5773 5774 5775 5776 5777 5778 5779 5780 5782 5784 5785 5786 5787 5788 5789 5791 5792 5794 5795 5795 5796 5797 5798 5798 5798 5798 5798 5798 5798 5798 5797 5796 5796 5795 5794 5794 5793
5763 5763 5764 5765 5765 5766 5766 5767 5768 5769 5770 5771 5773 5774 5775 5777 5778 5779 5780 5781 5783 5784 5786 5787 5788 5789 5790 5791 5792 5792 5793 5793 5793 5793 5793 5792 5792 5791 5790 5790 5789 5788 5787
5756 5756 5756 5757 5758 5758 5759 5760 5761 5762 5763 5764 5765 5767 5768 5769 5771 5772 5773 5774 5776 5777 5779 5781 5782 5783 5784 5784 5785 5786 5786 5787 5787 5787 5787 5787 5786 5785 5784 5783 5783 5782 5781
5748 5748 5749 5749 5750 5751 5751 5752 5754 5755 5756 5757 5758 5759 5760 5762 5763 5764 5765 5767 5768 5770 5772 5773 5775 5776 5777 5777 5778 5779 5780 5780 5780 5781 5781 5780 5780 5779 5778 5777 5776 5776 5775
5740 5741 5741 5741 5742 5743 5744 5745 5746 5747 5748 5749 5750 5751 5752 5753 5755 5756 5758 5759 5760 5762 5764 5766 5767 5768 5769 5770 5771 5772 5773 5773 5774 5774 5774 5773 5773 5772 5772 5771 5770 5769 5768
5732 5732 5733 5733 5734 5735 5736 5737 5738 5739 5740 5742 5743 5744 5745 5746 5747 5748 5750 5751 5752 5754 5756 5758 5759 5760 5761 5762 5763 5764 5765 5766 5767 5767 5767 5767 5766 5766 5765 5764 5763 5763 5762
5722 5723 5724 5725 5725 5726 5727 5729 5730 5731 5732 5733 5735 5736 5737 5738 5739 5740 5742 5743 5744 5746 5748 5749 5750 5752 5753 5754 5755 5756 5757 5758 5759 5760 5760 5760 5759 5759 5758 5757 5756 5756 5755
5713 5714 5715 5716 5717 5718 5719 5720 5722 5723 5724 5725 5727 5728 5729 5730 5731 5732 5733 5735 5736 5737 5739 5741 5742 5743 5744 5745 5746 5747 5749 5750 5751 5752 5752 5752 5752 5751 5751 5750 5749 5749 5748
5705 5706 5707 5708 5709 5710 5711 5712 5713 5715 5716 5717 5719 5720 5721 5722 5723 5724 5725 5726 5727 5729 5731 5733 5734 5735 5736 5737 5737 5738 5739 5741 5742 5743 5743 5743 5744 5743 5743 5742 5741 5741 5740
5697 5697 5698 5699 5700 5701 5703 5704 5706 5707 5708 5709 5710 5712 5713 5714 5714 5715 5716 5717 5719 5721 5722 5724 5725 5726 5727 5728 5728 5729 5730 5732 5733 5733 5734 5734 5735 5735 5734 5734 5733 5733 5732
5687 5688 5689 5690 5691 5693 5694 5695 5697 5698 5700 5701 5702 5703 5704 5705 5706 5706 5708 5709 5711 5712 5713 5715 5716 5717 5718 5719 5720 5720 5721 5722 5723 5724 5725 5725 5726 5726 5726 5725 5725 5724 5724
5678 5679 5680 5681 5682 5684 5685 5686 5688 5690 5691 5692 5693 5694 5695 5696 5697 5698 5699 5701 5702 5703 5704 5706 5707 5708 5709 5710 5710 5711 5712 5713 5714 5715 5716 5716 5717 5717 5717 5717 5716 5716 5715
5669 5670 5671 5672 5673 5674 5676 5677 5679 5680 5682 5683 5685 5686 5686 5687 5688 5689 5691 5692 5693 5695 5696 5696 5698 5699 5700 5701 5701 5702 5703 5704 5705 5706 5707 5707 5707 5708 5708 5708 5707 5707 5707
5660 5661 5662 5663 5664 5665 5666 5667 5669 5671 5673 5674 5675 5676 5677 5678 5679 5680 5681 5683 5684 5685 5686 5687 5688 5690 5691 5691 5692 5693 5693 5694 5695 5696 5697 5698 5698 5698 5698 5698 5698 5698 5698
5651 5652 5653 5654 5654 5655 5656 5658 5659 5661 5663 5664 5666 5667 5668 5669 5670 5671 5672 5674 5675 5676 5677 5678 5679 5680 5681 5682 5683 5683 5684 5685 5686 5686 5687 5688 5689 5689 5689 5689 5689 5689 5689
5642 5642 5643 5644 5645 5646 5647 5649 5650 5652 5653 5655 5656 5657 5659 5660 5661 5662 5663 5664 5665 5666 5667 5668 5669 5670 5671 5672 5673 5674 5675 5675 5676 5677 5677 5678 5679 5679 5679 5680 5680 5680 5680
5632 5633 5634 5635 5636 5637 5638 5639 5641 5642 5644 5645 5647 5648 5650 5651 5652 5652 5653 5654 5656 5656 5657 5658 5659 5660 5661 5662 5662 5664 5665 5665 5666 5667 5667 5668 5669 5669 5670 5670 5670 5670 5670
5623 5624 5624 5625 5626 5628 5628 5630 5631 5633 5635 5636 5638 5639 5640 5641 5643 5644 5645 5645 5646 5647 5648 5648 5649 5650 5651 5651 5652 5653 5654 5655 5655 5656 5657 5658 5659 5659 5660 5660 5660 5660 5660
5614 5614 5615 5616 5617 5618 5619 5621 5622 5623 5625 5627 5628 5630 5631 5632 5634 5635 5636 5637 5637 5638 5639 5639 5640 5640 5641 5642 5642 5643 5643 5644 5644 5645 5646 5647 5649 5649 5650 5650 5650 5650 5650